This is the latest recevied weather packets stored in our database for station/object WX5RP. If no packets are shown the sender has not sent any weather packets the latest 10 day(s).
| Time | Temp. | Humidity | Pressure | Rain* | Wind** | Luminosity | Snow |
|---|---|---|---|---|---|---|---|
| 1788027015 | 17.22° C | 45% | 1018.7 hPa | 0 mm | - | 809 W/m² | - |
| 1788026416 | 17.22° C | 46% | 1018.7 hPa | 0 mm | - | 712 W/m² | - |
| 1788025815 | 16.67° C | 47% | 1018.7 hPa | 0 mm | - | 770 W/m² | - |
| 1788025216 | 16.67° C | 50% | 1018.8 hPa | 0 mm | - | 755 W/m² | - |
| 1788024615 | 16.67° C | 49% | 1018.5 hPa | 0 mm | - | 729 W/m² | - |
| 1788024016 | 15.56° C | 51% | 1018.5 hPa | 0 mm | - | 705 W/m² | - |
| 1788023415 | 15.56° C | 52% | 1018.8 hPa | 0 mm | - | 685 W/m² | - |
| 1788022815 | 15° C | 57% | 1018.5 hPa | 0 mm | - | 654 W/m² | - |
| 1788022215 | 14.44° C | 57% | 1018.8 hPa | 0 mm | - | 622 W/m² | - |
| 1788021615 | 13.89° C | 60% | 1018.9 hPa | 0 mm | - | 594 W/m² | - |
| 1788021015 | 13.89° C | 63% | 1019.3 hPa | 0 mm | - | 566 W/m² | - |
| 1788020417 | 13.33° C | 64% | 1019.7 hPa | 0 mm | - | 536 W/m² | - |
| 1788019817 | 12.78° C | 66% | 1018.9 hPa | 0 mm | - | 505 W/m² | - |
| 1788019217 | 12.78° C | 65% | 1018.9 hPa | 0 mm | - | 476 W/m² | - |
| 1788018617 | 12.22° C | 67% | 1018.5 hPa | 0 mm | - | 442 W/m² | - |
| 1788018017 | 12.22° C | 69% | 1019.1 hPa | 0 mm | - | 407 W/m² | - |
| 1788017420 | 11.67° C | 70% | 1019.1 hPa | 0 mm | - | 377 W/m² | - |
| 1788016817 | 11.11° C | 73% | 1019.1 hPa | 0 mm | - | 344 W/m² | - |
| 1788016217 | 11.11° C | 76% | 1018.8 hPa | 0 mm | - | 298 W/m² | - |
| 1788015617 | 10° C | 79% | 1018.8 hPa | 0 mm | - | 266 W/m² | - |
| 1788015017 | 9.44° C | 81% | 1019.1 hPa | 0 mm | - | 230 W/m² | - |
| 1788014416 | 8.89° C | 82% | 1019.4 hPa | 0 mm | - | 178 W/m² | - |
| 1788013816 | 8.33° C | 84% | 1019.3 hPa | 0 mm | - | 144 W/m² | - |
| 1788013216 | 7.78° C | 85% | 1019.2 hPa | 0 mm | - | 105 W/m² | - |
| 1788012617 | 7.22° C | 85% | 1018.8 hPa | 0 mm | - | 75 W/m² | - |
* Rain latest hour (hover to see other rain measurements)
** Current wind speed in m/s (hover to see current wind gust speed)